Location: Newark
(21.0333°N, 105.8500°E)
Time: 06:49:23
(UTC+00:00)

Envisat - Pass Details

Date: 16 December 2019
Orbit: 764 x 766 km, 98.1° (Epoch: 20 January)

Event Time Altitude Azimuth Distance (km) Brightness Sun altitude
Rises 12:05:31 0° 201° (SSW) 3,215 6.8 -24.3°
Reaches altitude 10° 12:08:29 10° 219° (SW) 2,292 6.2 -25.0°
Maximum altitude 12:11:56 19° 263° (W) 1,773 5.7 -25.8°
Drops below altitude 10° 12:15:25 10° 306° (NW) 2,297 5.9 -26.5°
Sets 12:18:24 0° 325° (NW) 3,225 6.5 -27.2°
